Home   Weather   Muktsar   Past weeks

Flag for India Past Weather in Muktsar, Punjab, India — Yesterday and Last 2 Weeks

Now
82 °F

Fog.


Feels Like: 89 °F
Forecast: 78 / 103 °F
Wind: 7 mph from South

Location: Lahore Airport

Current Time: Sep 28, 2016 at 8:56:50 AM

Latest Report: Sep 28, 2016 at 8:25 AM


Visibility: 2 mi

Pressure: 29.77 "Hg

Humidity: 79%

Dew Point: 75 °F

Location of MuktsarLocation

Past Weather in Muktsar — Graph

°F

Muktsar Temperature Yesterday

Maximum temperature yesterday: 95 °F (at 1:25 PM)
Minimum temperature yesterday: 81 °F (at 3:55 AM)
Average temperature yesterday: 86 °F

High & Low Weather Summary for the Past Weeks

 TemperatureHumidityPressure
High99 °F (Sep 19, 3:30 PM)89% (Sep 14, 9:25 AM)29.92 "Hg (Sep 14, 9:25 AM)
Low73 °F (Sep 23, 6:25 AM)17% (Sep 21, 8:59 AM)29.59 "Hg (Sep 20, 4:55 PM)
Average86 °F66%29.72 "Hg
* Reported Sep 13 9:55 AM — Sep 28 7:30 AM, Muktsar, Weather by CustomWeather, © 2016

Note: Actual official high and low records may vary slightly from our data, if they occured in-between our weather recording intervals... More about our weather records

Advertising

Muktsar Weather History for the Previous 24 Hours

Scroll right to see more
 ConditionsComfort  
Time TempWeatherWind HumidityBarometerVisibility
7:30 AM
Wed, Sep 28
79 °FHaze.5 mph84%29.62 "Hg2 mi
5:25 AM79 °FClear.5 mph84%29.74 "Hg2 mi
4:55 AM79 °FClear.5 mph84%29.71 "Hg2 mi
4:25 AM79 °FClear.7 mph84%29.71 "Hg2 mi
3:55 AM79 °FClear.5 mph84%29.71 "Hg2 mi
3:25 AM79 °FClear.5 mph84%29.71 "Hg2 mi
2:29 AM81 °FClear.3 mph84%29.74 "Hg2 mi
1:29 AM81 °FClear.5 mph84%29.74 "Hg2 mi
12:29 AM82 °FClear.No wind79%29.74 "Hg2 mi
11:59 PM
Tue, Sep 27
82 °FClear.3 mph79%29.74 "Hg2 mi
11:29 PM82 °FClear.3 mph79%29.74 "Hg2 mi
10:59 PM82 °FPassing clouds.5 mph79%29.74 "Hg2 mi
9:29 PM84 °FPassing clouds.5 mph79%29.74 "Hg2 mi
8:25 PM88 °FPassing clouds.3 mph70%29.74 "Hg2 mi
7:25 PM90 °FPassing clouds.5 mph63%29.71 "Hg2 mi
6:30 PM90 °FPassing clouds.5 mph63%29.71 "Hg2 mi
6:00 PM91 °FScattered clouds.5 mph59%29.71 "Hg2 mi
5:30 PM91 °FScattered clouds.6 mph59%29.71 "Hg2 mi
5:00 PM91 °FScattered clouds.5 mph59%29.71 "Hg2 mi
3:25 PM93 °FScattered clouds.No wind53%29.71 "Hg2 mi
2:25 PM95 °FScattered clouds.3 mph50%29.74 "Hg4 mi
1:55 PM95 °FScattered clouds.5 mph50%29.74 "Hg4 mi
1:25 PM95 °FScattered clouds.2 mph50%29.77 "Hg4 mi
12:55 PM93 °FScattered clouds.3 mph53%29.77 "Hg3 mi
12:25 PM93 °FScattered clouds.6 mph53%29.80 "Hg3 mi
11:55 AM91 °FPassing clouds.6 mph56%29.80 "Hg3 mi
11:25 AM91 °FClear.7 mph56%29.83 "Hg2 mi
10:55 AM90 °FClear.6 mph55%29.83 "Hg2 mi
10:25 AM88 °FClear.7 mph59%29.83 "Hg2 mi
9:55 AM88 °FClear.7 mph62%29.83 "Hg2 mi
9:25 AM86 °FClear.8 mph66%29.83 "Hg2 mi
8:55 AM84 °FClear.7 mph74%29.83 "Hg1 mi
8:25 AM82 °FFog.5 mph79%29.83 "Hg1 mi
Weather by CustomWeather, © 2016

See weather overviewHow to use our weather pages